www.pogodaiklimat.ru

Погода и климат >> Архив погоды >> Россия >> Калмыкия >> Комсомольский


ПОГОДА в Комсомольском

  • Прогноз погоды в Комсомольском
  • Монитор погоды в Комсомольском

АРХИВ ПОГОДЫ в Комсомольском

Время (UTC), дата Ветер
(напр.,м/с)
 
Видим.   Явления Облачность Т
(С)
Тd
(С)
f
(%)
Тe
(С)
Тes
(С)
Комфортность P
(гПа)
Po
(гПа)
Тmin
(С)
Tmax
(С)
R
(мм)
R24
(мм)
S
(см)
09 9.07 С 3 20 км 5/0
[Ac trans Ci fib]
+33.4 +9.3 23 +32 +45 жарко 1005.5 1005.9
12 9.07 СЗ 4 20 км 5/0
[Ac trans Ci fib]
+34.6 +11.0 24 +34 +40 очень
жарко
1005.3 1005.7
15 9.07 СЗ 2 20 км 3/3 1000 м
[Cu hum Ci fib]
+33.4 +12.5 28 +34 +35 очень
жарко
1005.5 1005.9 +35.5
18 9.07 СЗ 3
{11}
20 км 8/8 300 м
[Cb cap]
+27.3 +16.0 50 +31 +31 душно 1007.2 1007.5
21 9.07 СЗ 2 20 км 3/0
[Ac trans]
+24.3 +13.2 50 +26 +26 жарко 1008.0 1008.4
00 10.07 СЗ 3 20 км ясно +21.5 +10.9 51 +23 +23 комфорт 1008.4 1008.8
03 10.07 СЗ 2 20 км 4/0
[Ac trans]
+21.4 +10.5 50 +23 +24 комфорт 1008.7 1009.0 +19.9
06 10.07 СЗ 2 20 км 9/6 600 м
[Sc Ac und]
+25.9 +8.6 33 +26 +28 жарко 1008.7 1009.1
09 10.07 З 2 20 км 5/0
[Ac und Ci fib]
+30.2 +6.9 23 +29 +41 жарко 1007.8 1008.1
12 10.07 З 3 20 км 1/0
[Ac trans]
+32.1 +6.4 20 +30 +39 жарко 1006.0 1006.3
15 10.07 СЗ 3 20 км ясно +31.1 +5.2 20 +29 +30 жарко 1005.9 1006.2 +32.7
18 10.07 Ю 2 20 км 4/0
[Ac trans Ci fib]
+25.6 +9.8 37 +26 +26 жарко 1006.6 1007.0
21 10.07 СВ 3 20 км 8/8 600 м
[Sc diur, vesp Ac und]
+23.5 +7.4 36 +24 +24 комфорт 1006.6 1006.9
00 11.07 СВ 2 20 км {ливн. осадки} 10/10 480 м
[Cb cap]
+22.3 +8.7 42 +24 +24 комфорт 1005.8 1006.2
03 11.07 СВ 2 20 км 1/0
[Ci fib]
+21.3 +10.4 50 +23 +25 комфорт 1005.3 1005.7 +20.1 0.0
06 11.07 СВ 2 20 км 6/0
[Ac und Ci fib]
+29.0 +9.7 30 +29 +37 жарко 1005.0 1005.3
09 11.07 В 4-12
{12}
20 км 6/6 1000 м
[Cu med, cong Ac und Ci fib]
+32.0 +14.9 36 +34 +39 душно 1003.2 1003.5
12 11.07 ЮВ 4
{12}
20 км 8/8 1000 м
[Cu med, cong Ac und]
+32.9 +14.7 33 +34 +36 очень
жарко
1001.4 1001.8
15 11.07 ЮВ 4
{11}
20 км 3/0
[Ac und Ci fib]
+30.9 +15.0 38 +33 +34 душно 1001.5 1001.9 +33.1
18 11.07 В 3 20 км 5/5 600 м
[Sc Ac cast]
+26.8 +18.0 59 +31 +31 душно 1002.2 1002.6
21 11.07 В 3 20 км 8/8 600 м
[Sc Ac und]
+24.7 +18.9 70 +30 +30 очень
душно
1001.8 1002.1
00 12.07 С 1 20 км ясно +23.2 +19.1 78 +30 +30 очень
душно
1000.6 1001.0
03 12.07 СВ 3 20 км 4/0
[Ac und]
+22.6 +16.7 69 +27 +28 душно 1000.1 1000.4 +21.8
06 12.07 З 2 20 км 8/8 300 м
[Cb cap]
+27.3 +19.8 64 +33 +36 очень
душно
1000.0 1000.4
09 12.07 З 6-14
{14}
20 км 10/10 480 м
[Cb cap]
+27.3 +17.0 53 +31 +31 душно 1000.7 1001.1
12 12.07 СЗ 4
{14}
20 км {ливн. осадки} 10/10 480 м
[Cb cap]
+22.9 +15.8 64 +27 +27 душно 1003.2 1003.5
15 12.07 СЗ 5-11
{12}
20 км {ливн. осадки} 9/8 300 м
[Cb cap Ac trans]
+20.1 +14.8 72 +22 +22 комфорт 1006.1 1006.4 +29.6 0.0
18 12.07 СЗ 4
{11}
20 км {ливн. осадки} 10/10 600 м
[Sc]
+19.3 +13.9 71 +21 +21 комфорт 1007.9 1008.3
21 12.07 СЗ 2 20 км ясно +17.4 +13.2 76 +18 +18 1008.6 1009.0
00 13.07 З 1 20 км 5/0
[Ac trans Ci fib]
+15.1 +12.9 87 +16 +16 1009.1 1009.5
03 13.07 СЗ 2 20 км 8/4 600 м
[Sc Ac trans]
+16.9 +13.6 81 +17 +18 1008.9 1009.2 +14.5
06 13.07 С 1 20 км 10/10 300 м
[Cb calv]
+19.6 +12.7 64 +22 +22 комфорт 1009.4 1009.8
09 13.07 СЗ 2 20 км {ливн. осадки} 10/10 300 м
[Cb calv]
+21.0 +13.3 61 +24 +24 комфорт 1009.8 1010.1
12 13.07 С 2 20 км 8/5 600 м
[Sc diur, vesp Ac trans]
+26.4 +10.1 36 +27 +31 жарко 1008.8 1009.2
15 13.07 С 2 20 км 5/0
[Ac trans]
+26.3 +8.7 33 +27 +28 жарко 1008.6 1009.0 +26.8 0.4
18 13.07 З 1 20 км 6/0
[Ac und]
+20.9 +10.9 53 +24 +24 комфорт 1009.7 1010.1
21 13.07 З 1 20 км 8/6 600 м
[Sc diur, vesp Ac trans]
+20.2 +11.1 56 +23 +23 комфорт 1009.8 1010.2
00 14.07 штиль 0 20 км 10/8 600 м
[Sc diur, vesp Ac trans]
+18.9 +11.7 63 +20 +20 1008.9 1009.3
03 14.07 З 1 20 км 10/10 600 м
[Sc diur, vesp]
+18.7 +12.9 69 +21 +21 комфорт 1009.6 1009.9 +18.1
06 14.07 СЗ 2 20 км 10/10 600 м
[Sc]
+22.4 +13.9 59 +26 +26 жарко 1009.7 1010.1
09 14.07 З 1 20 км 10/10 600 м
[Sc]
+25.0 +12.4 45 +27 +27 жарко 1009.8 1010.1
12 14.07 ЮЗ 2 20 км 4/0
[Ac trans Ci fib]
+28.6 +9.1 30 +29 +38 жарко 1008.9 1009.3
15 14.07 З 3 20 км ясно +28.1 +7.3 27 +27 +29 жарко 1008.6 1009.0 +29.0
18 14.07 Ю 1 20 км 3/0
[Ac trans Ci fib]
+21.3 +9.4 47 +23 +23 комфорт 1008.9 1009.3
21 14.07 Ю 3 20 км 4/0
[Ac trans Ci fib]
+20.2 +13.7 66 +23 +23 комфорт 1008.7 1009.1
00 15.07 ЮЗ 2 20 км 3/0
[Ac trans]
+17.7 +13.7 77 +18 +18 1008.2 1008.5
03 15.07 З 1 20 км 1/0
[Ac trans]
+19.7 +14.1 70 +23 +24 комфорт 1008.1 1008.4 +16.6
06 15.07 ЮВ 1 20 км 1/0
[Ac cast]
+27.0 +10.6 36 +28 +41 жарко 1007.9 1008.2
09 15.07 В 4 20 км 3/3 1000 м
[Cu med, cong]
+29.6 +9.0 28 +29 +38 жарко 1006.7 1007.1
12 15.07 ЮВ 5
{11}
20 км 1/1 1000 м
[Cu med, cong]
+30.0 +8.9 27 +29 +35 жарко 1005.7 1006.0
15 15.07 ЮВ 6-11
{13}
20 км ясно +27.1 +9.7 34 +28 +28 жарко 1005.5 1005.9 +30.6
18 15.07 В 3
{11}
20 км 3/0
[Ac und]
+23.1 +13.4 54 +26 +26 жарко 1005.5 1005.8
21 15.07 В 1 20 км 10/10 540 м
[Sc]
+22.3 +16.2 68 +26 +26 жарко 1006.4 1006.7
00 16.07 СВ 1 20 км в посл. час ливневой дождь 10/10 400 м
[Cb cap]
+20.8 +18.3 86 +26 +26 душно 1005.8 1006.2
03 16.07 В 3 20 км в посл. час гроза {ливн. осадки} 5/3 600 м
[Sc Ac trans]
+20.2 +17.3 83 +24 +24 комфорт 1004.5 1004.9 +19.7 0.5
06 16.07 В 4 20 км {гроза, ливн. осадки} 6/4 600 м
[Sc Ac trans]
+23.5 +17.4 69 +27 +31 душно 1005.2 1005.6

 

Местоположение метеостанции Комсомольский (Калмыкия, Россия): широта 45.35 долгота 46.03 высота над уровнем моря -2 м.

В архиве по умолчанию представлена погода в Комсомольском за последнюю неделю. Архивные данные за месяц целиком и за предыдущие месяцы, начиная с января 2011 года, Вы можете получить, выбрав интересующий диапазон дат из раскрывающегося списка и нажав кнопку "Ввод!".


*Определитесь, кто Вы:
робот инопланетянин человек

Внимание! Время в таблицах - всемирное. Для получения местного времени необходимо прибавить поправку, которая равна 3 ч.

Смотрите также архив погоды в соседних городах и на ближайших метеорологических станциях:

Погода в Артезиане (Калмыкия, Россия) (70 км)
Погода в Южно-Сухокумске (Дагестан, Россия) (83 км)
Погода в Лагани (Калмыкия, Россия) (103 км)
Погода в Лимане (Астраханская область, Россия) (105 км)
Погода в Яшкуле (Калмыкия, Россия) (106 км)
Погода в Кочубее (Дагестан, Россия) (113 км)
Погода в Утте (Калмыкия, Россия) (113 км)
Погода в Ики-Буруле (Калмыкия, Россия) (120 км)
Погода в Терекли-Мектебе (Дагестан, Россия) (136 км)
Погода в Арзгире (Ставропольский край, Россия) (143 км)

Пояснения к столбцам:

Ветер - указаны скорость ветра в м/с - средняя за 10 мин, порывы в срок и между сроками (в фигурных скобках) и направление, откуда дует ветер: С - северный, СВ - северо-восточный, В - восточный, ЮВ - юго-восточный, Ю - южный, ЮЗ - юго-западный, З - западный, СЗ - северо-западный.
Видимость - горизонтальная дальность видимости в метрах или километрах. При видимости от 1 до 10 км при отсутствии осадков обычно наблюдается дымка, при ухудшении видимости до 1 км и менее - туман. В сухую погоду видимость может ухудшаться дымом, пылью или мглою.
Явления - указаны атмосферные явления, наблюдавшиеся в срок или в последний час перед сроком; фигурными скобками обозначены явления, наблюдавшиеся между сроками (за 1-3 часа до срока); квадратными скобками обозначены град или гололедные отложения с указанием их диаметра в мм.
Облачность - указаны через наклонную черту общая и нижняя облачность в баллах и высота нижней границы облаков в метрах; квадратными скобками обозначены формы облаков: Ci - перистые, Cs - перисто-слоистые, Cc - перисто-кучевые, Ac - высококучевые, As - высокослоистые, Sc - слоисто-кучевые, Ns - слоисто-дождевые, Cu - кучевые, Cb - кучево-дождевые. Подробнее классификацию облаков см. в Атласе облаков (PDF).
T - Температура воздуха - температура, измеренная на высоте 2 м над землей.
Td - Температура точки росы - температура, при понижении до которой содержащийся в воздухе водяной пар достигнет насыщения.
f - Относительная влажность воздуха - влажноcть воздуха, измеренная на высоте 2 м над землей.
Te - Эффективная температура - температура, которую ощущает одетый по сезону человек в тени. Характеристика душности погоды. При расчете учитывается влияние влажности воздуха и скорости ветра на теплоощущения человека.
Tes - Эффективная температура на солнце - температура, которую ощущает человек, с поправкой на солнечный нагрев. Характеристика знойности погоды. Зависит от высоты солнца над горизонтом, облачности и скорости ветра. Ночью, в пасмурную погоду, а также при ветре 12 м/с и более поправка равна нулю.
P - Атмосферное давление - приведенное к уровню моря атмосферное давление.
Po - Атмосферное давление - измеренное на уровне метеостанции атмосферное давление.
Tmin - Минимальная температура - минимум температуры воздуха на высоте 2 м над землей.
Tmax - Максимальная температура - максимум температуры воздуха на высоте 2 м над землей.
R - Количество осадков - Количество выпавших осадков за период времени, мм. При наведении курсора мыши на число - период времени, за который выпало указанное количество осадков.
R24 - Количество осадков - Количество выпавших осадков за 24 часа, мм.
S - Снежный покров - Высота снежного покрова, см. При наведении курсора мыши на число - состояние снежного покрова и степень покрытия местности в баллах.